TimeEDT,TemperatureF,Dew PointF,Humidity,Sea Level PressureIn,VisibilityMPH,Wind Direction,Wind SpeedMPH,Gust SpeedMPH,PrecipitationIn,Events,Conditions,WindDirDegrees,DateUTC
12:56 AM,66.0,64.0,93,30.02,9.0,Calm,Calm,-,N/A,,Clear,0,2013-10-06 04:56:00
1:56 AM,64.9,64.0,97,30.02,9.0,Calm,Calm,-,N/A,,Clear,0,2013-10-06 05:56:00
2:56 AM,63.0,62.1,97,30.01,7.0,Calm,Calm,-,N/A,,Clear,0,2013-10-06 06:56:00
3:56 AM,62.1,62.1,100,30.00,6.0,Calm,Calm,-,N/A,,Clear,0,2013-10-06 07:56:00
4:56 AM,62.1,61.0,96,29.99,5.0,Calm,Calm,-,N/A,,Clear,0,2013-10-06 08:56:00
5:56 AM,62.1,61.0,96,30.01,4.0,Calm,Calm,-,N/A,,Clear,0,2013-10-06 09:56:00
6:56 AM,63.0,62.1,97,30.01,7.0,Calm,Calm,-,N/A,,Mostly Cloudy,0,2013-10-06 10:56:00
7:56 AM,62.1,62.1,100,30.03,5.0,Calm,Calm,-,N/A,,Mostly Cloudy,0,2013-10-06 11:56:00
8:56 AM,66.0,64.9,96,30.04,7.0,Calm,Calm,-,N/A,,Scattered Clouds,0,2013-10-06 12:56:00
9:56 AM,72.0,66.0,81,30.04,10.0,Calm,Calm,-,N/A,,Clear,0,2013-10-06 13:56:00
10:56 AM,75.9,63.0,64,30.02,10.0,West,4.6,-,N/A,,Partly Cloudy,270,2013-10-06 14:56:00
11:56 AM,78.1,64.0,62,30.01,10.0,South,6.9,-,N/A,,Clear,190,2013-10-06 15:56:00
12:56 PM,79.0,64.0,60,29.99,10.0,Calm,Calm,-,N/A,,Mostly Cloudy,0,2013-10-06 16:56:00
1:56 PM,80.1,63.0,56,29.97,10.0,South,6.9,-,N/A,,Scattered Clouds,170,2013-10-06 17:56:00
2:56 PM,81.0,62.1,52,29.94,10.0,SE,8.1,-,N/A,,Partly Cloudy,140,2013-10-06 18:56:00
3:56 PM,82.0,61.0,49,29.92,10.0,Calm,Calm,-,N/A,,Partly Cloudy,0,2013-10-06 19:56:00
4:56 PM,81.0,62.1,52,29.91,10.0,SSE,6.9,-,N/A,,Partly Cloudy,160,2013-10-06 20:56:00
5:56 PM,78.1,64.0,62,29.90,10.0,Calm,Calm,-,N/A,,Scattered Clouds,0,2013-10-06 21:56:00
6:56 PM,75.0,64.0,69,29.90,10.0,Calm,Calm,-,N/A,,Clear,0,2013-10-06 22:56:00
7:56 PM,72.0,64.0,76,29.90,10.0,ESE,4.6,-,N/A,,Clear,120,2013-10-06 23:56:00
8:56 PM,73.9,64.0,71,29.90,10.0,Calm,Calm,-,N/A,,Mostly Cloudy,0,2013-10-07 00:56:00
9:56 PM,73.0,64.0,73,29.89,10.0,ESE,3.5,-,N/A,,Mostly Cloudy,120,2013-10-07 01:56:00
10:56 PM,73.9,64.0,71,29.87,10.0,SE,6.9,-,N/A,,Mostly Cloudy,140,2013-10-07 02:56:00
11:56 PM,71.1,68.0,90,29.85,10.0,SSE,5.8,-,0.01,Rain,Light Rain,150,2013-10-07 03:56:00